Weather History for KEYW - January, 2012

Change the Weather History Date:

Thursday, January 12, 2012

  Actual Average Record
Temperature  
Mean Temperature 73 °F 69 °F  
Max Temperature 77 °F 74 °F 84 °F (1993)
Min Temperature 69 °F 64 °F 41 °F (1886)
Degree Days  
Heating Degree Days 0 1  
Month to date heating degree days 12  
Since 1 July heating degree days 30  
Cooling Degree Days 8 5  
Month to date cooling degree days 62  
Year to date cooling degree days 62  
Growing Degree Days 23 (Base 50)    
Moisture  
Dew Point 68 °F    
Average Humidity 83    
Maximum Humidity 96    
Minimum Humidity 69    
Precipitation  
Precipitation 0.63 in 0.07 in 0.63 in (2012)
Month to date precipitation 0.76  
Year to date precipitation 0.76  
Snow  
Snow 0.00 in - - ()
Month to date snowfall  
Since 1 July snowfall  
Snow Depth -    
Sea Level Pressure  
Sea Level Pressure 29.97 in    
Wind  
Wind Speed 9 mph (North)    
Max Wind Speed 20 mph    
Max Gust Speed 30 mph    
Visibility 9 miles    
Events Rain , Thunderstorm    
T = Trace of Precipitation, MM = Missing Value Source: NWS Daily Summary

Daily Weather History Graph

Daily Weather History Graph

Search for Another Location

Airport or City:

Trip Planner

Search our weather history database for the weather conditions in past years. The results will help you decide how hot, cold, wet, or windy it might be!

Date:

Astronomy

Jan. 12, 2012 Rise Set
Actual Time 7:12 AM EST 5:57 PM EST
Civil Twilight 6:48 AM EST 6:22 PM EST
Nautical Twilight 6:20 AM EST 6:50 PM EST
Astronomical Twilight 5:52 AM EST 7:17 PM EST
Moon 9:31 PM EST (1/12) 9:22 AM EST (1/12)
Length of Visible Light 11h 33m
Length of Day
10h 44m
Waning Gibbous, 87% of the Moon is Illuminated
Jan 12
Waning Gibbous
Jan 16
Last Quarter
Jan 23
New
Jan 30
First Quarter
Feb 7
Full

Hourly Weather History & Observations

Time (EST) Temp. Dew Point Humidity Pressure Visibility Wind Dir Wind Speed Gust Speed Precip Events Conditions
12:53 AM 75.0 °F 66.9 °F 76% 29.90 in 10.0 mi SW 19.6 mph 29.9 mph N/A   Clear
1:53 AM 75.0 °F 69.1 °F 82% 29.89 in 10.0 mi SW 19.6 mph 26.5 mph N/A   Clear
2:53 AM 75.0 °F 70.0 °F 84% 29.88 in 10.0 mi WSW 11.5 mph - N/A   Clear
3:53 AM 75.0 °F 69.1 °F 82% 29.88 in 10.0 mi SW 9.2 mph - N/A   Scattered Clouds
4:53 AM 75.2 °F 68.0 °F 78% 29.88 in 10.0 mi West 9.2 mph - N/A   Clear
5:53 AM 73.9 °F 69.1 °F 85% 29.91 in 10.0 mi West 6.9 mph - N/A   Clear
6:53 AM 71.6 °F 69.8 °F 94% 29.94 in 10.0 mi NNW 3.5 mph - N/A   Overcast
7:53 AM 72.0 °F 69.1 °F 91% 29.96 in 10.0 mi Calm Calm - N/A   Overcast
8:53 AM 73.9 °F 69.1 °F 85% 29.98 in 10.0 mi NW 3.5 mph - N/A   Overcast
9:53 AM 75.0 °F 71.1 °F 87% 29.99 in 10.0 mi Calm Calm - N/A   Overcast
10:29 AM 77.0 °F 69.8 °F 78% 30.00 in 10.0 mi NNW 5.8 mph - N/A   Overcast
10:53 AM 75.0 °F 69.1 °F 82% 30.00 in 10.0 mi North 9.2 mph - N/A   Overcast
11:00 AM 73.4 °F 69.8 °F 88% 30.00 in 10.0 mi North 6.9 mph - N/A   Overcast
11:30 AM 75.2 °F 66.2 °F 73% 29.98 in 10.0 mi NE 5.8 mph - N/A   Mostly Cloudy
11:53 AM 75.9 °F 68.0 °F 76% 29.97 in 10.0 mi NNE 5.8 mph - N/A   Overcast
12:45 PM 75.2 °F 66.2 °F 73% 29.95 in 10.0 mi Variable 4.6 mph - N/A   Overcast
12:53 PM 75.9 °F 66.9 °F 74% 29.95 in 10.0 mi NNE 4.6 mph - N/A   Overcast
1:53 PM 75.2 °F 66.2 °F 73% 29.95 in 10.0 mi North 8.1 mph - N/A   Unknown
2:01 PM 73.4 °F 66.2 °F 78% 29.94 in 10.0 mi North 8.1 mph - N/A   Overcast
2:53 PM 75.0 °F 64.0 °F 69% 29.95 in 10.0 mi ENE 6.9 mph - 0.00 in   Mostly Cloudy
3:06 PM 75.2 °F 66.2 °F 73% 29.94 in 10.0 mi NE 4.6 mph - N/A   Scattered Clouds
3:53 PM 73.9 °F 64.0 °F 71% 29.95 in 10.0 mi NE 4.6 mph - N/A   Overcast
4:03 PM 73.4 °F 64.4 °F 73% 29.95 in 10.0 mi ENE 4.6 mph - N/A   Overcast
4:53 PM 73.9 °F 64.9 °F 73% 29.95 in 10.0 mi Calm Calm - N/A   Scattered Clouds
5:53 PM 73.0 °F 68.0 °F 84% 29.97 in 10.0 mi ESE 3.5 mph - 0.05 in Rain Light Rain
6:53 PM 71.1 °F 68.0 °F 90% 29.99 in 10.0 mi NNW 3.5 mph - 0.00 in Rain Light Rain
7:53 PM 71.1 °F 68.0 °F 90% 30.00 in 10.0 mi Calm Calm - 0.00 in   Mostly Cloudy
8:53 PM 71.1 °F 68.0 °F 90% 30.00 in 10.0 mi NNE 4.6 mph - N/A   Mostly Cloudy
9:44 PM 69.8 °F 68.0 °F 94% 30.02 in 10.0 mi North 3.5 mph - 0.00 in Rain Light Rain
9:53 PM 70.0 °F 66.9 °F 90% 30.03 in 10.0 mi Calm Calm - 0.00 in   Overcast
10:15 PM 69.8 °F 66.2 °F 88% 30.03 in 5.0 mi NE 3.5 mph - 0.09 in Rain Rain
10:53 PM 70.0 °F 68.0 °F 93% 30.04 in 9.0 mi Calm Calm - 0.10 in Rain , Thunderstorm Heavy Thunderstorms and Rain
11:08 PM 69.8 °F 68.0 °F 94% 30.05 in 2.5 mi North 3.5 mph - 0.18 in Rain Heavy Rain
11:15 PM 69.8 °F 68.0 °F 94% 30.04 in 3.0 mi Calm Calm - 0.25 in Rain Heavy Rain
11:53 PM 69.1 °F 68.0 °F 96% 30.04 in 10.0 mi East 4.6 mph - 0.48 in Rain Light Rain